Shelton, WA

6:30 PM PDT on September 19, 2017 (GMT -0700)
Sanderson

Weather History for KSHN - November, 2012

Change the Weather History Date:

Sunday, November 11, 2012

  Actual Average Record
Temperature  
Mean Temperature 36 °F -  
Max Temperature 43 °F 51 °F 63 °F (1990)
Min Temperature 28 °F 39 °F 20 °F (1955)
Degree Days  
Heating Degree Days 30    
Moisture  
Dew Point 38 °F    
Average Humidity 96    
Maximum Humidity 100    
Minimum Humidity 87    
Precipitation  
Precipitation 1.56 in - - ()
Sea Level Pressure  
Sea Level Pressure 30.13 in    
Wind  
Wind Speed 3 mph (North)    
Max Wind Speed 9 mph    
Max Gust Speed -    
Visibility 10 miles    
Events Rain    
Averages and records for this station are not official NWS values.
T = Trace of Precipitation, MM = Missing Value Source: NWS Daily Summary

Daily Weather History Graph

Daily Weather History Graph

Search for Another Location

Airport or City:

Trip Planner

Search our weather history database for the weather conditions in past years. The results will help you decide how hot, cold, wet, or windy it might be!

Date:

Astronomy

Nov. 11, 2012 Rise Set
Actual Time 7:11 AM PST 4:41 PM PST
Civil Twilight 6:38 AM PST 5:14 PM PST
Nautical Twilight 6:01 AM PST 5:51 PM PST
Astronomical Twilight 5:25 AM PST 6:26 PM PST
Moon 4:24 AM PST (11/11) 3:14 PM PST (11/11)
Length of Visible Light 10h 35m
Length of Day
9h 29m
Waning Crescent, 6% of the Moon is Illuminated
Nov 11
Waning Crescent
Nov 13
New
Nov 20
First Quarter
Nov 28
Full
Dec 6
Last Quarter

Hourly Weather History & Observations

Time (PST) Temp. Windchill Dew Point Humidity Pressure Visibility Wind Dir Wind Speed Gust Speed Precip Events Conditions
12:53 AM 28.9 °F - 27.0 °F 92% 30.22 in 10.0 mi Calm Calm - N/A   Scattered Clouds
1:53 AM 28.0 °F - 26.1 °F 92% 30.23 in 10.0 mi Calm Calm - N/A   Clear
2:53 AM 30.0 °F - 28.0 °F 92% 30.21 in 10.0 mi Calm Calm - N/A   Mostly Cloudy
3:34 AM 30.2 °F - 28.4 °F 93% 30.20 in 10.0 mi Calm Calm - N/A   Scattered Clouds
3:53 AM 30.9 °F - 30.0 °F 96% 30.21 in 10.0 mi Calm Calm - N/A   Overcast
4:53 AM 30.9 °F - 30.9 °F 100% 30.21 in 10.0 mi Calm Calm - N/A   Overcast
5:53 AM 35.6 °F 31.7 °F 32.0 °F 87% 30.18 in 10.0 mi North 4.6 mph - N/A   Overcast
6:53 AM 35.1 °F - 33.1 °F 92% 30.21 in 10.0 mi Calm Calm - 0.00 in Rain Light Rain
7:53 AM 36.0 °F 33.3 °F 34.0 °F 93% 30.21 in 10.0 mi NNE 3.5 mph - 0.00 in   Overcast
8:53 AM 37.0 °F 33.3 °F 35.1 °F 93% 30.22 in 10.0 mi North 4.6 mph - 0.02 in Rain Light Rain
9:53 AM 37.9 °F 33.5 °F 36.0 °F 93% 30.22 in 10.0 mi North 5.8 mph - 0.00 in Rain Light Rain
10:20 AM 37.4 °F 34.9 °F 37.4 °F 100% 30.20 in 10.0 mi NNE 3.5 mph - 0.01 in Rain Light Rain
10:53 AM 39.0 °F 35.7 °F 37.9 °F 96% 30.22 in 10.0 mi North 4.6 mph - 0.03 in Rain Light Rain
11:53 AM 39.0 °F 36.8 °F 39.0 °F 100% 30.20 in 10.0 mi North 3.5 mph - 0.02 in Rain Light Rain
12:53 PM 39.9 °F 35.8 °F 39.0 °F 97% 30.18 in 10.0 mi NNE 5.8 mph - 0.06 in Rain Light Rain
1:53 PM 42.1 °F 40.2 °F 41.0 °F 96% 30.16 in 10.0 mi Variable 3.5 mph - 0.06 in Rain Light Rain
2:53 PM 43.0 °F 41.3 °F 41.0 °F 93% 30.14 in 10.0 mi Variable 3.5 mph - 0.10 in Rain Light Rain
3:01 PM 42.8 °F - 41.0 °F 93% 30.13 in 10.0 mi Calm Calm - 0.01 in Rain Light Rain
3:21 PM 42.8 °F 41.1 °F 41.0 °F 93% 30.12 in 10.0 mi NE 3.5 mph - 0.06 in Rain Rain
3:36 PM 42.8 °F - 41.0 °F 93% 30.12 in 10.0 mi Calm Calm - 0.10 in Rain Rain
3:46 PM 42.8 °F - 41.0 °F 93% 30.11 in 10.0 mi Calm Calm - 0.13 in Rain Rain
3:53 PM 42.1 °F 39.2 °F 41.0 °F 96% 30.13 in 10.0 mi Variable 4.6 mph - 0.15 in Rain Rain
4:13 PM 42.8 °F 40.1 °F 41.0 °F 93% 30.11 in 10.0 mi East 4.6 mph - 0.05 in Rain Light Rain
4:53 PM 43.0 °F 39.5 °F 41.0 °F 93% 30.11 in 10.0 mi East 5.8 mph - 0.14 in Rain Rain
5:41 PM 42.8 °F 39.3 °F 42.8 °F 100% 30.08 in 10.0 mi East 5.8 mph - N/A Rain Rain
5:53 PM 43.0 °F 39.5 °F 42.1 °F 97% 30.09 in 10.0 mi East 5.8 mph - 0.17 in Rain Rain
6:42 PM 42.8 °F 39.3 °F 41.0 °F 93% 30.07 in 10.0 mi NNW 5.8 mph - 0.12 in Rain Rain
6:53 PM 41.0 °F 35.8 °F 39.9 °F 96% 30.08 in 10.0 mi NNW 8.1 mph - 0.15 in Rain Rain
7:53 PM 39.9 °F 33.9 °F 39.0 °F 97% 30.07 in 10.0 mi NNW 9.2 mph - 0.12 in Rain Rain
8:06 PM 39.2 °F 34.2 °F 39.2 °F 100% 30.05 in 10.0 mi North 6.9 mph - 0.02 in Rain Light Rain
8:53 PM 39.9 °F 37.8 °F 39.9 °F 100% 30.07 in 10.0 mi NNW 3.5 mph - 0.12 in Rain Light Rain
9:11 PM 39.2 °F 37.0 °F 39.2 °F 100% 30.06 in 10.0 mi NNW 3.5 mph - 0.05 in Rain Rain
9:20 PM 39.2 °F 34.2 °F 39.2 °F 100% 30.06 in 10.0 mi NNW 6.9 mph - 0.07 in Rain Rain
9:53 PM 39.9 °F 35.1 °F 39.0 °F 97% 30.06 in 10.0 mi NNE 6.9 mph - 0.17 in Rain Rain
10:12 PM 39.2 °F 37.0 °F 39.2 °F 100% 30.05 in 10.0 mi NNW 3.5 mph - 0.05 in Rain Rain
10:19 PM 39.2 °F 35.9 °F 39.2 °F 100% 30.05 in 10.0 mi NNW 4.6 mph - 0.06 in Rain Rain
10:53 PM 41.0 °F 38.0 °F 39.9 °F 96% 30.06 in 9.0 mi NW 4.6 mph - 0.12 in Rain Light Rain
11:11 PM 39.2 °F 34.2 °F 39.2 °F 100% 30.06 in 8.0 mi NW 6.9 mph - 0.04 in Rain Light Rain
11:28 PM 41.0 °F 37.1 °F 39.2 °F 93% 30.05 in 10.0 mi NNW 5.8 mph - 0.09 in Rain Light Rain
11:32 PM 41.0 °F 37.1 °F 39.2 °F 93% 30.05 in 10.0 mi NNW 5.8 mph - 0.10 in Rain Light Rain
11:53 PM 41.0 °F 37.1 °F 39.9 °F 96% 30.07 in 10.0 mi NNW 5.8 mph - 0.13 in Rain Light Rain